TTW231 ROAH-RCTP

Flight info

Callsign TTW231
Flight time N/A
Altitude 32000
Route GANJU Y576 LILRA Y573 SEDKU R595 GRACE GRACE1B
Aircraft A320/M-SDE3FGHIRWY/LB1

Departure

Time 2026-04-08 10:21
Airport Naha International Airport (ROAH)

Arrival

Time N/A
Airport Taiwan Taoyuan International Airport (RCTP)
Time Latitude Longitude Altitude Speed Heading
2026-04-08 09:41 26.20953 127.64971 22 ft 0 kts 88°
2026-04-08 10:13 26.20953 127.64970 21 ft 2 kts 88°
2026-04-08 10:13 26.20953 127.64950 21 ft 3 kts 88°
2026-04-08 10:13 26.20952 127.64930 21 ft 3 kts 88°
2026-04-08 10:13 26.20951 127.64910 20 ft 3 kts 98°
2026-04-08 10:14 26.20957 127.64891 23 ft 3 kts 135°
2026-04-08 10:14 26.20972 127.64880 24 ft 3 kts 172°
2026-04-08 10:14 26.20989 127.64880 22 ft 2 kts 189°
2026-04-08 10:14 26.21006 127.64883 22 ft 3 kts 175°
2026-04-08 10:15 26.21010 127.64883 22 ft 0 kts 173°
2026-04-08 10:17 26.21005 127.64883 22 ft 2 kts 173°
2026-04-08 10:17 26.20986 127.64885 22 ft 4 kts 176°
2026-04-08 10:17 26.20953 127.64883 22 ft 6 kts 193°
2026-04-08 10:18 26.20919 127.64850 20 ft 8 kts 242°
2026-04-08 10:18 26.20915 127.64821 19 ft 4 kts 266°
2026-04-08 10:18 26.20912 127.64781 19 ft 7 kts 268°
2026-04-08 10:18 26.20941 127.64730 18 ft 7 kts 320°
2026-04-08 10:19 26.20979 127.64684 16 ft 10 kts 288°
2026-04-08 10:19 26.20977 127.64625 16 ft 5 kts 264°
2026-04-08 10:19 26.20969 127.64582 16 ft 7 kts 250°
2026-04-08 10:19 26.20951 127.64532 17 ft 6 kts 244°
2026-04-08 10:20 26.20926 127.64522 17 ft 2 kts 185°
2026-04-08 10:20 26.20919 127.64523 17 ft 0 kts 175°
2026-04-08 10:20 26.20893 127.64525 18 ft 17 kts 176°
2026-04-08 10:21 26.20530 127.64543 19 ft 85 kts 177°
2026-04-08 10:21 26.19765 127.64579 15 ft 135 kts 177°
2026-04-08 10:21 26.18703 127.64624 118 ft 164 kts 174°
2026-04-08 10:21 26.17562 127.64679 668 ft 164 kts 174°
2026-04-08 10:22 26.16424 127.64735 1255 ft 164 kts 173°
2026-04-08 10:22 26.15287 127.64787 1830 ft 163 kts 173°
2026-04-08 10:22 26.14143 127.64837 2301 ft 169 kts 173°
2026-04-08 10:22 26.12893 127.64895 2514 ft 190 kts 174°
2026-04-08 10:23 26.11490 127.64708 2696 ft 217 kts 191°
2026-04-08 10:23 26.09999 127.64211 3158 ft 232 kts 196°
2026-04-08 10:23 26.08460 127.63615 3910 ft 235 kts 197°
2026-04-08 10:23 26.06913 127.63008 4743 ft 235 kts 198°
2026-04-08 10:24 26.05366 127.62413 5580 ft 235 kts 199°
2026-04-08 10:24 26.03807 127.61827 6395 ft 236 kts 201°
2026-04-08 10:24 26.02242 127.61251 7143 ft 238 kts 201°
2026-04-08 10:24 26.00661 127.60676 7882 ft 240 kts 201°
2026-04-08 10:25 25.99058 127.60098 8613 ft 243 kts 202°
2026-04-08 10:25 25.97474 127.59449 9326 ft 243 kts 210°
2026-04-08 10:25 25.96039 127.58475 10044 ft 241 kts 223°
2026-04-08 10:25 25.94842 127.57222 10686 ft 239 kts 233°
2026-04-08 10:26 25.93791 127.55778 11351 ft 241 kts 234°
2026-04-08 10:26 25.92728 127.54321 12015 ft 243 kts 234°
2026-04-08 10:26 25.91655 127.52860 12679 ft 245 kts 234°
2026-04-08 10:26 25.90571 127.51387 13333 ft 247 kts 234°
2026-04-08 10:27 25.89476 127.49902 13984 ft 249 kts 234°
2026-04-08 10:27 25.88372 127.48403 14543 ft 251 kts 234°
2026-04-08 10:27 25.87277 127.46916 15116 ft 253 kts 234°
2026-04-08 10:27 25.86161 127.45400 15690 ft 254 kts 234°
2026-04-08 10:28 25.85031 127.43865 16248 ft 256 kts 234°
2026-04-08 10:28 25.83900 127.42322 16808 ft 258 kts 237°
2026-04-08 10:28 25.82917 127.40657 17362 ft 257 kts 245°
2026-04-08 10:28 25.82191 127.38844 17915 ft 257 kts 253°
2026-04-08 10:29 25.81743 127.36946 18447 ft 257 kts 262°
2026-04-08 10:29 25.81570 127.34966 18928 ft 258 kts 270°
2026-04-08 10:29 25.81675 127.32975 19419 ft 258 kts 276°
2026-04-08 10:29 25.81869 127.30990 19907 ft 259 kts 276°
2026-04-08 10:30 25.82057 127.28992 20390 ft 260 kts 276°
2026-04-08 10:30 25.82243 127.26985 20861 ft 262 kts 276°
2026-04-08 10:30 25.82426 127.24997 21334 ft 262 kts 276°
2026-04-08 10:30 25.82611 127.22971 21790 ft 264 kts 276°
2026-04-08 10:31 25.82799 127.20930 22255 ft 265 kts 276°
2026-04-08 10:31 25.82985 127.18886 22702 ft 267 kts 276°
2026-04-08 10:31 25.83172 127.16825 23142 ft 268 kts 277°
2026-04-08 10:31 25.83362 127.14759 23580 ft 270 kts 277°
2026-04-08 10:32 25.83550 127.12705 23928 ft 271 kts 277°
2026-04-08 10:32 25.83744 127.10614 24286 ft 273 kts 277°
2026-04-08 10:32 25.83939 127.08510 24645 ft 274 kts 277°
2026-04-08 10:32 25.84134 127.06395 24990 ft 275 kts 277°
2026-04-08 10:33 25.84328 127.04272 25341 ft 277 kts 277°
2026-04-08 10:33 25.84520 127.02140 25704 ft 278 kts 276°
2026-04-08 10:33 25.84716 127.00000 26043 ft 279 kts 276°
2026-04-08 10:33 25.84913 126.97850 26387 ft 280 kts 276°
2026-04-08 10:34 25.85108 126.95713 26729 ft 281 kts 276°
2026-04-08 10:34 25.85307 126.93540 27056 ft 283 kts 276°
2026-04-08 10:34 25.85506 126.91361 27396 ft 284 kts 276°
2026-04-08 10:34 25.85704 126.89170 27735 ft 285 kts 276°
2026-04-08 10:35 25.85903 126.86971 28062 ft 287 kts 276°
2026-04-08 10:35 25.86102 126.84756 28394 ft 289 kts 276°
2026-04-08 10:35 25.86301 126.82535 28755 ft 290 kts 276°
2026-04-08 10:35 25.86503 126.80293 29085 ft 291 kts 276°
2026-04-08 10:36 25.86704 126.78074 29416 ft 293 kts 276°
2026-04-08 10:36 25.86857 126.75811 29753 ft 295 kts 271°
2026-04-08 10:36 25.86724 126.73518 30100 ft 298 kts 264°
2026-04-08 10:36 25.86275 126.71251 30370 ft 303 kts 257°
2026-04-08 10:37 25.85515 126.69077 30646 ft 309 kts 250°
2026-04-08 10:37 25.84471 126.66969 30919 ft 313 kts 246°
2026-04-08 10:37 25.83384 126.64862 31194 ft 315 kts 247°
2026-04-08 10:37 25.82291 126.62741 31467 ft 317 kts 246°
2026-04-08 10:38 25.81193 126.60607 31730 ft 318 kts 247°
2026-04-08 10:38 25.80093 126.58466 31987 ft 321 kts 247°
2026-04-08 10:38 25.77848 126.54075 32087 ft 338 kts 246°
2026-04-08 10:39 25.75461 126.49401 32091 ft 358 kts 246°
2026-04-08 10:39 25.72923 126.44464 32087 ft 378 kts 246°
2026-04-08 10:40 25.70253 126.39293 32091 ft 396 kts 245°
2026-04-08 10:40 25.67486 126.33952 32086 ft 400 kts 245°
2026-04-08 10:41 25.64709 126.28590 32089 ft 400 kts 245°
2026-04-08 10:41 25.61945 126.23259 32088 ft 400 kts 245°
2026-04-08 10:42 25.59170 126.17905 32088 ft 401 kts 245°
2026-04-08 10:42 25.56391 126.12537 32084 ft 401 kts 245°
2026-04-08 10:43 25.53609 126.07173 32086 ft 401 kts 245°
2026-04-08 10:43 25.50841 126.01849 32083 ft 401 kts 245°
2026-04-08 10:44 25.48053 125.96489 32085 ft 401 kts 245°
2026-04-08 10:44 25.45285 125.91174 32079 ft 401 kts 245°
2026-04-08 10:45 25.42493 125.85824 32082 ft 401 kts 245°
2026-04-08 10:45 25.39703 125.80480 32078 ft 401 kts 245°
2026-04-08 10:46 25.36909 125.75133 32079 ft 401 kts 245°
2026-04-08 10:46 25.34121 125.69822 32075 ft 401 kts 245°
2026-04-08 10:47 25.31282 125.64500 32078 ft 401 kts 244°
2026-04-08 10:47 25.28431 125.59178 32072 ft 401 kts 244°
2026-04-08 10:48 25.25607 125.53892 32069 ft 401 kts 244°
2026-04-08 10:48 25.24181 125.51223 32071 ft 401 kts 244°